Temperature
17 17 17 17 17 17 17 17 17 17 17 17 17 17 17 17 17 17 17 18 18 18 18 18 18 17 17 17 17 17 17 17 17 17 17 17 17 16 16 16 16 16 16
17 17 17 17 17 17 17 17 17 17 17 17 17 17 17 17 17 17 17 17 18 18 18 18 18 18 17 17 17 17 17 17 17 17 17 17 17 17 16 16 16 16 16
17 17 17 17 17 17 17 17 17 17 17 17 17 17 17 17 17 17 17 17 17 18 18 18 18 18 17 17 17 17 17 17 17 17 17 17 17 17 17 16 16 16 16
18 18 17 17 17 17 17 17 17 17 17 17 17 18 18 17 17 17 18 18 18 18 18 18 18 18 17 17 17 17 17 17 17 17 17 17 17 17 17 16 16 16 16
17 17 17 17 17 17 17 17 18 17 17 17 18 18 18 18 18 18 18 18 18 17 18 18 18 18 18 18 17 17 17 17 17 17 17 17 17 17 17 16 16 16 16
18 17 18 18 18 18 17 17 17 17 17 18 18 18 18 18 18 18 18 18 18 18 18 17 17 18 18 18 18 17 17 17 17 17 17 17 17 17 17 17 17 16 16
18 18 18 18 18 18 17 17 17 17 18 18 18 18 18 18 18 18 18 18 18 18 18 18 18 18 18 18 18 18 17 17 17 17 17 17 17 17 17 17 17 16 16
18 18 18 18 18 18 18 18 18 18 18 18 18 19 19 19 18 18 18 18 18 18 18 18 18 18 18 18 18 18 17 17 17 17 17 17 17 17 17 17 17 16 16
18 18 18 18 18 18 18 18 18 17 18 18 18 18 19 20 19 19 18 18 18 18 18 18 17 18 17 17 17 17 17 17 17 17 17 17 17 17 17 17 16 16 16
18 18 18 18 18 18 18 18 18 18 18 18 18 18 18 18 19 19 19 18 18 18 18 18 18 17 17 17 17 17 18 17 17 17 17 17 17 17 17 16 16 16 16
18 18 18 18 18 18 18 18 18 18 18 18 18 18 18 18 18 18 19 18 18 18 18 17 18 18 17 17 17 17 17 17 17 17 17 17 17 17 16 16 16 16 16
18 18 18 18 18 18 18 18 18 18 18 18 18 18 18 18 18 18 18 18 18 18 17 17 17 17 17 17 17 17 17 17 17 17 17 17 17 17 16 16 16 16 16
19 19 18 18 18 18 18 18 18 18 18 18 18 18 18 18 18 18 18 18 18 18 17 17 17 17 17 17 17 17 17 17 17 17 16 16 16 16 16 16 16 16 16
19 19 19 19 18 18 18 18 18 18 18 18 18 18 17 17 17 17 17 18 18 18 18 17 17 17 16 16 16 16 16 16 16 16 16 16 16 16 16 16 16 16 16
19 19 19 18 18 18 18 18 18 18 18 18 17 17 17 17 17 17 17 17 17 18 18 17 17 16 16 16 16 16 16 16 16 16 16 16 16 16 16 16 16 15 15
19 19 18 18 18 18 18 18 18 18 18 18 17 17 17 17 17 17 17 17 17 17 18 17 17 16 16 16 16 15 15 15 15 15 15 15 15 15 15 15 15 15 15
19 19 18 18 18 18 18 18 18 17 17 17 17 17 17 17 17 17 17 17 17 17 17 17 16 16 16 15 15 15 15 15 15 15 15 15 15 15 15 15 15 15 15
18 18 18 18 18 18 18 18 18 17 17 17 17 17 17 17 17 17 17 17 17 17 16 16 16 16 16 15 15 15 14 14 14 14 15 15 15 15 14 14 14 14 14
19 18 18 18 18 18 17 17 17 17 17 17 17 17 17 17 17 17 17 17 16 16 16 16 16 16 15 15 15 15 14 14 14 14 14 14 14 14 14 14 14 14 14
18 18 18 18 18 18 17 17 17 17 17 17 17 17 17 17 17 17 17 17 16 16 16 16 16 16 15 15 15 14 14 14 14 14 13 13 14 13 13 13 13 13 13
18 18 18 18 17 17 17 17 17 17 17 17 17 17 16 16 17 17 16 16 16 16 16 16 16 15 15 15 14 14 14 14 13 13 13 13 13 13 13 13 13 13 13
18 18 18 17 17 17 17 17 17 17 16 16 16 16 16 16 17 17 17 16 16 16 15 15 15 15 15 15 14 14 14 14 13 13 13 13 13 13 12 12 13 13 13
18 18 18 18 17 17 17 17 17 17 16 16 16 16 16 16 16 16 16 16 16 16 16 15 15 15 14 14 14 14 14 13 13 13 13 13 13 12 12 12 12 12 12
17 17 17 17 17 17 17 17 17 16 16 16 16 16 16 16 16 16 16 16 16 16 15 15 15 15 14 14 14 14 13 13 13 13 13 13 13 12 12 12 12 12 12
17 17 17 17 16 17 17 17 16 16 16 16 16 16 15 15 16 16 16 15 15 15 15 15 15 15 14 14 14 13 13 13 13 13 12 13 13 12 12 12 12 12 12
16 16 16 16 16 16 16 16 16 16 15 15 15 15 15 15 15 15 15 15 15 15 15 15 15 14 14 14 14 13 13 13 13 13 12 12 12 12 12 12 12 11 11
Wind_Speed
3 2 2 2 2 3 4 3 3 3 3 4 5 5 5 5 4 5 5 10 10 11 11 12 12 13 13 13 14 14 13 13 13 13 13 13 12 12 12 12 12 11 12
2 2 3 2 3 3 2 3 3 3 3 3 4 4 5 5 5 6 6 8 12 13 13 13 13 14 14 14 14 14 15 15 15 14 14 14 14 14 13 13 13 13 12
3 3 2 3 2 3 3 3 3 3 4 4 4 4 5 5 5 6 7 6 9 13 14 14 14 14 15 15 15 15 15 16 16 16 16 15 15 15 15 15 14 14 14
5 4 3 3 3 3 3 3 3 3 3 3 3 4 4 5 6 6 7 8 7 7 12 15 15 15 16 16 16 16 16 16 17 17 17 17 17 17 17 17 17 16 16
6 6 4 3 4 3 3 3 2 3 3 4 5 5 5 5 5 7 7 8 8 8 8 12 16 16 16 17 16 17 17 18 18 19 19 19 19 18 18 18 18 18 18
6 6 5 4 5 4 3 3 3 4 4 4 5 4 5 5 6 6 7 7 7 8 9 8 9 13 17 16 16 17 17 18 18 19 19 19 20 20 20 20 20 20 19
6 5 4 4 5 4 4 4 4 4 5 3 4 4 4 5 5 5 5 4 5 5 6 6 7 7 8 15 16 14 14 15 15 16 18 18 19 20 20 21 21 21 21
6 6 5 5 5 4 5 5 5 4 4 3 3 3 3 4 4 3 3 4 4 4 4 5 5 6 6 6 7 11 11 12 12 13 14 16 17 18 19 20 21 21 22
7 6 6 5 5 6 6 6 6 6 5 4 3 3 3 1 1 3 3 3 3 3 3 3 4 4 5 5 4 6 7 8 9 10 10 12 14 15 17 18 18 19 19
7 7 6 6 6 6 5 6 6 5 6 5 4 4 4 3 3 2 3 3 3 3 3 4 3 3 4 4 2 1 3 5 6 7 8 9 9 10 12 12 13 14 15
6 7 6 6 6 6 6 6 5 6 5 5 4 4 4 4 6 5 3 2 2 2 2 3 2 2 2 3 2 3 4 3 3 3 3 4 6 7 8 9 9 10 11
6 7 7 6 6 6 6 6 6 6 6 6 5 5 5 4 4 5 5 4 3 2 2 2 2 2 2 2 2 5 4 3 2 2 2 2 2 3 4 5 7 8 8
6 6 6 6 6 6 6 6 6 6 6 6 6 5 5 5 5 5 5 5 4 3 2 3 2 2 1 2 3 4 4 3 2 1 2 1 0 1 1 2 3 3 4
6 5 6 7 7 7 7 6 6 6 6 6 7 6 5 5 5 5 5 5 5 4 4 3 2 2 2 2 3 4 4 4 3 3 3 3 3 2 1 1 1 1 1
6 6 7 7 7 7 7 7 6 6 6 6 7 7 6 5 5 5 5 6 6 5 4 3 3 3 2 2 3 3 3 5 5 4 4 4 4 3 2 2 2 1 1
6 7 7 7 7 7 7 7 7 7 7 6 6 6 6 6 5 5 5 6 6 6 5 2 2 3 3 3 4 3 4 7 6 5 5 5 4 4 3 3 3 2 2
7 7 7 7 7 7 7 7 8 7 8 7 7 7 7 7 5 5 5 6 6 6 6 4 2 3 4 4 4 4 5 4 5 7 6 5 4 4 3 3 3 3 2
8 8 7 7 7 8 7 8 9 8 8 8 8 8 8 7 7 6 5 6 6 6 6 6 4 4 4 5 5 5 4 4 4 8 8 6 5 4 3 3 3 3 3
7 7 7 7 7 7 8 8 8 8 8 8 8 8 8 8 8 6 7 6 6 6 6 6 5 4 3 4 5 5 5 4 4 7 9 7 6 5 4 4 3 3 3
7 7 7 7 7 7 8 8 8 8 8 8 8 8 9 9 8 8 7 7 6 6 6 7 6 5 4 4 5 5 5 5 4 5 5 6 8 8 6 5 4 3 3
7 7 7 7 7 7 7 7 7 8 8 8 8 8 8 8 7 7 7 7 7 6 6 7 6 5 5 4 5 5 5 4 4 3 3 4 5 5 6 6 5 4 4
7 7 7 7 7 6 3 5 7 8 8 8 8 8 8 8 7 8 7 6 7 8 8 7 6 6 6 6 5 5 5 4 4 3 4 4 4 4 4 3 5 6 6
6 6 6 6 7 6 5 7 8 9 9 8 8 8 7 7 7 8 7 8 8 8 8 9 8 7 6 6 6 6 5 5 4 3 4 4 4 3 3 4 9 8 7
5 5 6 6 6 6 6 8 8 10 10 9 9 8 8 7 6 6 7 8 8 8 8 9 8 7 6 5 6 7 6 6 5 4 4 4 4 4 3 5 10 9 9
5 5 6 6 7 6 6 7 8 8 8 9 8 8 8 8 6 6 7 8 8 7 6 6 5 4 3 4 5 5 6 6 5 5 4 4 4 4 4 4 8 12 11
5 6 5 6 6 6 4 6 7 7 7 7 7 7 7 7 6 7 8 8 8 7 6 6 6 6 7 7 7 7 6 6 5 4 4 5 4 4 4 4 4 7 9
Wind_Direction
194 165 176 197 209 189 187 200 203 192 200 204 212 213 223 232 239 235 189 183 205 219 225 224 224 224 224 223 221 221 220 221 223 224 225 225 225 225 225 222 223 226 227
194 200 195 202 210 210 204 202 196 203 217 219 224 227 234 231 226 238 234 197 204 217 227 229 224 224 226 226 226 227 226 226 225 226 228 230 231 230 229 229 229 230 230
207 219 216 217 211 205 201 216 208 214 224 224 227 233 234 237 233 234 242 237 218 211 218 223 222 223 225 227 229 229 229 229 229 228 229 231 233 234 232 232 233 233 233
217 224 225 224 214 219 211 211 221 223 236 249 242 239 237 229 236 237 238 235 238 230 210 211 218 223 226 229 231 231 231 231 231 231 230 231 233 235 235 234 236 236 235
217 221 227 228 225 226 225 232 215 238 237 245 244 231 240 236 236 239 243 242 235 238 236 203 210 222 227 230 231 231 232 233 232 233 233 233 234 235 235 236 237 237 237
218 226 221 219 229 225 227 230 227 234 243 244 258 255 253 246 239 241 245 241 235 234 237 235 218 218 220 227 230 231 233 234 234 234 235 236 236 236 236 236 236 237 236
220 226 238 216 228 225 231 235 234 226 236 240 253 251 238 230 234 236 241 251 242 242 245 241 241 241 220 215 222 228 234 238 239 237 238 238 238 237 236 236 235 236 237
224 221 227 232 227 229 229 232 235 248 243 226 256 264 241 203 207 218 225 228 244 244 243 240 239 238 250 239 204 212 227 237 243 242 241 239 237 238 238 237 237 237 238
224 233 231 238 236 237 230 231 234 240 248 234 236 260 274 259 230 186 205 214 221 239 248 242 238 237 239 242 236 196 213 233 243 248 249 246 243 242 244 243 242 241 241
227 227 231 232 237 243 238 237 228 243 247 246 225 236 263 298 280 239 198 184 198 223 245 251 243 225 230 231 206 169 188 220 236 249 255 256 251 251 249 245 242 240 241
221 226 226 227 232 239 241 246 246 246 244 250 248 238 236 238 248 262 253 234 218 218 224 234 239 234 225 216 201 142 148 174 204 231 250 259 258 257 252 245 243 242 242
216 219 222 227 234 240 237 239 240 237 247 253 256 249 242 244 242 248 257 249 248 246 240 245 243 222 196 184 144 114 135 154 176 205 231 252 268 269 266 262 255 249 245
218 215 220 224 234 237 240 240 235 244 238 240 242 246 248 250 258 259 265 266 263 254 231 232 229 223 194 155 126 134 128 130 127 152 176 181 216 287 291 290 274 261 254
225 216 217 226 233 237 238 233 241 237 235 237 242 245 247 246 249 252 257 263 262 252 234 229 214 200 193 167 123 170 133 131 129 133 131 122 114 107 95 72 21 348 303
221 213 220 228 233 236 240 237 238 239 237 240 242 235 241 240 242 246 247 251 260 263 251 211 216 201 202 167 156 169 141 131 143 144 135 126 118 115 110 104 90 75 74
221 220 221 228 233 235 235 236 239 235 235 238 241 244 242 244 238 239 240 242 249 258 264 235 213 199 195 201 172 184 152 140 134 140 135 129 121 116 109 103 94 87 87
217 222 225 227 231 235 236 236 241 237 236 237 237 232 233 243 241 238 235 236 237 241 248 254 237 194 200 220 194 192 186 188 150 147 146 138 129 121 114 104 96 90 81
217 221 227 227 232 234 234 235 239 239 237 237 236 234 234 228 230 243 241 238 236 235 240 245 243 222 209 209 210 216 207 200 175 150 154 152 144 134 127 119 109 99 89
218 222 228 228 233 236 235 236 239 241 240 240 239 236 233 229 228 232 238 239 234 227 231 239 241 232 222 209 208 216 216 220 206 166 168 169 165 154 144 138 129 116 106
218 222 228 230 233 237 239 239 239 242 242 242 240 238 235 232 230 231 231 234 235 232 228 237 238 225 219 212 217 219 217 213 225 201 180 178 173 168 159 156 152 144 136
223 222 226 228 233 236 236 236 240 239 241 241 240 238 237 234 238 239 241 232 230 232 231 232 233 228 225 214 221 227 228 219 214 220 203 193 186 188 180 177 177 171 163
229 225 226 230 235 241 225 231 243 244 242 242 243 241 237 228 227 227 243 246 240 234 237 239 236 233 229 226 223 230 227 221 218 207 225 223 215 208 188 175 157 164 169
225 225 226 231 239 241 224 226 238 245 245 243 242 240 242 234 220 229 225 227 235 243 246 247 248 245 235 225 224 223 221 228 235 209 220 230 217 213 193 142 147 164 171
223 229 235 237 242 242 223 225 229 238 244 243 239 236 237 238 225 223 225 226 231 233 234 237 245 244 244 237 225 226 222 217 218 210 216 234 218 222 208 169 162 174 179
227 232 233 237 242 242 226 224 229 239 238 238 236 235 235 232 212 211 222 225 228 232 219 218 238 232 229 220 229 226 215 214 217 206 209 234 225 220 214 195 173 179 185
231 237 238 239 243 248 223 217 226 239 238 238 236 233 226 231 210 202 222 224 226 229 223 207 210 210 209 201 208 224 223 222 222 213 194 220 221 215 218 203 190 187 194
Height
1554 1555 1556 1556 1557 1558 1558 1559 1559 1560 1561 1562 1563 1563 1564 1564 1564 1565 1565 1564 1564 1565 1565 1566 1566 1566 1567 1568 1568 1569 1570 1571 1572 1572 1573 1574 1574 1575 1576 1577 1577 1578 1579
1554 1555 1555 1556 1557 1557 1558 1558 1559 1560 1560 1561 1562 1562 1562 1563 1563 1563 1564 1563 1563 1563 1563 1564 1564 1564 1565 1566 1566 1567 1568 1569 1570 1570 1571 1572 1572 1573 1574 1574 1575 1576 1576
1553 1554 1555 1555 1556 1556 1556 1557 1558 1559 1559 1560 1561 1561 1561 1561 1562 1561 1562 1562 1562 1562 1562 1562 1562 1562 1563 1564 1564 1565 1566 1566 1567 1568 1569 1569 1570 1571 1571 1572 1573 1573 1574
1552 1553 1554 1555 1555 1556 1556 1557 1558 1558 1559 1559 1559 1559 1560 1559 1559 1559 1560 1560 1560 1561 1560 1560 1560 1560 1561 1561 1562 1562 1563 1564 1565 1565 1566 1567 1567 1568 1569 1569 1570 1571 1571
1552 1552 1553 1554 1554 1555 1555 1556 1557 1557 1557 1557 1558 1558 1558 1558 1557 1558 1558 1558 1558 1558 1558 1558 1558 1558 1558 1559 1559 1560 1560 1561 1562 1563 1563 1564 1564 1565 1566 1566 1567 1567 1568
1551 1551 1552 1552 1553 1554 1554 1554 1554 1555 1555 1555 1556 1556 1556 1556 1555 1556 1556 1556 1556 1556 1556 1556 1556 1556 1556 1556 1557 1557 1557 1558 1559 1559 1560 1560 1561 1562 1562 1563 1563 1564 1564
1550 1550 1551 1551 1551 1552 1552 1553 1553 1554 1554 1554 1554 1554 1554 1553 1553 1553 1553 1553 1554 1554 1553 1553 1553 1554 1554 1553 1554 1554 1555 1555 1556 1556 1556 1557 1557 1558 1558 1559 1559 1560 1560
1548 1549 1549 1549 1550 1550 1550 1551 1551 1552 1552 1552 1553 1553 1552 1553 1551 1551 1551 1551 1551 1551 1551 1551 1551 1551 1551 1551 1551 1551 1551 1552 1552 1552 1553 1553 1553 1554 1554 1554 1555 1555 1556
1546 1546 1547 1547 1548 1548 1549 1549 1549 1550 1550 1551 1550 1551 1551 1549 1550 1550 1549 1549 1548 1549 1549 1549 1548 1548 1548 1548 1548 1548 1548 1548 1548 1549 1549 1549 1549 1550 1550 1550 1550 1550 1551
1543 1544 1544 1545 1545 1546 1546 1547 1548 1548 1548 1549 1549 1548 1549 1548 1549 1548 1548 1547 1546 1546 1546 1546 1546 1546 1546 1546 1545 1545 1545 1545 1545 1545 1545 1545 1545 1545 1545 1545 1545 1545 1546
1541 1541 1542 1542 1543 1543 1544 1544 1545 1545 1546 1546 1547 1546 1546 1546 1546 1547 1546 1546 1545 1545 1544 1543 1543 1543 1543 1543 1543 1542 1542 1542 1542 1542 1542 1542 1542 1541 1541 1541 1541 1541 1541
1538 1539 1539 1540 1540 1541 1541 1541 1542 1542 1543 1543 1543 1544 1544 1544 1544 1544 1544 1543 1543 1543 1542 1541 1541 1541 1540 1540 1540 1539 1539 1539 1539 1539 1538 1538 1538 1538 1537 1537 1537 1537 1537
1536 1536 1537 1537 1537 1538 1538 1538 1539 1539 1540 1540 1540 1541 1541 1541 1541 1541 1541 1541 1540 1540 1539 1539 1539 1539 1538 1538 1537 1536 1536 1536 1536 1535 1535 1535 1534 1534 1534 1533 1533 1533 1532
1532 1533 1533 1534 1534 1535 1535 1535 1536 1536 1537 1537 1537 1537 1538 1538 1538 1538 1538 1539 1538 1538 1538 1537 1537 1536 1536 1535 1535 1534 1534 1533 1533 1533 1532 1532 1531 1531 1530 1530 1529 1529 1529
1528 1528 1529 1530 1531 1531 1532 1532 1533 1533 1533 1534 1534 1534 1534 1535 1535 1535 1535 1535 1536 1535 1535 1534 1534 1534 1533 1533 1532 1532 1532 1531 1530 1530 1530 1529 1529 1528 1528 1527 1526 1526 1526
1524 1524 1526 1527 1528 1528 1528 1529 1529 1530 1530 1530 1530 1530 1531 1532 1532 1532 1532 1532 1532 1533 1532 1532 1531 1531 1530 1531 1530 1529 1529 1529 1528 1528 1527 1527 1526 1526 1525 1524 1524 1523 1523
1520 1522 1523 1523 1524 1525 1525 1526 1526 1526 1527 1527 1527 1527 1527 1528 1528 1529 1529 1529 1529 1529 1529 1529 1529 1528 1527 1527 1527 1527 1527 1527 1526 1526 1525 1525 1524 1523 1523 1522 1521 1521 1520
1516 1518 1520 1520 1521 1522 1522 1522 1522 1523 1523 1523 1523 1523 1523 1524 1524 1525 1525 1525 1525 1525 1526 1525 1525 1525 1524 1524 1524 1525 1525 1525 1524 1523 1523 1522 1522 1521 1520 1520 1519 1518 1518
1513 1514 1516 1516 1517 1518 1518 1519 1519 1519 1519 1519 1519 1519 1519 1520 1520 1521 1521 1522 1522 1522 1522 1522 1522 1522 1522 1521 1521 1522 1522 1522 1522 1521 1520 1520 1519 1519 1518 1518 1517 1516 1516
1509 1510 1511 1512 1512 1513 1514 1515 1515 1515 1515 1515 1515 1515 1515 1516 1516 1517 1517 1517 1518 1518 1518 1519 1519 1518 1518 1518 1518 1519 1519 1519 1519 1519 1518 1518 1517 1516 1516 1515 1515 1514 1514
1505 1506 1507 1507 1508 1509 1510 1510 1511 1511 1511 1511 1510 1511 1511 1512 1512 1513 1513 1513 1514 1514 1515 1515 1515 1515 1514 1514 1515 1515 1516 1516 1515 1516 1516 1515 1515 1514 1513 1512 1512 1512 1512
1501 1502 1503 1503 1504 1505 1506 1506 1506 1506 1506 1506 1506 1506 1507 1507 1507 1508 1508 1509 1509 1510 1510 1510 1511 1511 1510 1510 1511 1511 1512 1512 1512 1513 1513 1512 1512 1512 1511 1510 1509 1509 1509
1497 1498 1498 1499 1499 1500 1501 1501 1501 1502 1502 1502 1502 1502 1502 1503 1503 1503 1503 1504 1504 1504 1505 1505 1506 1506 1506 1506 1506 1507 1508 1508 1509 1509 1509 1509 1509 1509 1509 1508 1507 1507 1507
1493 1493 1494 1495 1495 1495 1496 1496 1497 1497 1497 1497 1497 1497 1497 1498 1498 1498 1498 1499 1499 1499 1500 1500 1500 1501 1501 1502 1502 1503 1504 1504 1505 1505 1506 1507 1507 1507 1507 1506 1505 1505 1505
1489 1490 1490 1490 1490 1490 1491 1492 1492 1492 1492 1492 1492 1492 1492 1493 1493 1493 1493 1493 1494 1494 1495 1495 1495 1496 1496 1497 1498 1499 1500 1501 1501 1502 1502 1503 1504 1504 1504 1504 1503 1502 1502
1485 1486 1486 1486 1486 1486 1486 1486 1486 1487 1487 1487 1487 1487 1487 1487 1488 1488 1488 1488 1488 1488 1489 1490 1490 1491 1492 1492 1493 1494 1496 1497 1498 1499 1498 1499 1500 1501 1501 1501 1501 1500 1500